Blue Bell, PA

4:03 PM EST on December 02, 2016 (GMT -0500)
Philadelphia Wings Airport

Weather History for KLOM - January, 2013

Change the Weather History Date:

Sunday, January 27, 2013

  Actual Average (KPNE) Record (KPNE)
Temperature  
Mean Temperature 22 °F -  
Max Temperature 33 °F 36 °F 62 °F (2002)
Min Temperature 10 °F 22 °F 9 °F (2003)
Degree Days  
Heating Degree Days 44    
Moisture  
Dew Point 15 °F    
Average Humidity 72    
Maximum Humidity 92    
Minimum Humidity 48    
Precipitation  
Precipitation 0.00 in - - ()
Sea Level Pressure  
Sea Level Pressure 30.48 in    
Wind  
Wind Speed 2 mph (WNW)    
Max Wind Speed 9 mph    
Max Gust Speed 16 mph    
Visibility 10 miles    
Events      
Averages and records for this station are not official NWS values.
T = Trace of Precipitation, MM = Missing Value Source: NWS Daily Summary

Daily Weather History Graph

Daily Weather History Graph

Search for Another Location

Airport or City:

Trip Planner

Search our weather history database for the weather conditions in past years. The results will help you decide how hot, cold, wet, or windy it might be!

Date:

Astronomy

Jan. 27, 2013 Rise Set
Actual Time 7:14 AM EST 5:14 PM EST
Civil Twilight 6:45 AM EST 5:43 PM EST
Nautical Twilight 6:12 AM EST 6:15 PM EST
Astronomical Twilight 5:40 AM EST 6:48 PM EST
Moon 6:06 PM EST (1/27) 7:05 AM EST (1/27)
Length of Visible Light 10h 58m
Length of Day
10h 00m
Full, 100% of the Moon is Illuminated
Jan 27
Full
Feb 3
Last Quarter
Feb 10
New
Feb 17
First Quarter
Feb 25
Full

Hourly Weather History & Observations

Time (EST) Temp. Windchill Dew Point Humidity Pressure Visibility Wind Dir Wind Speed Gust Speed Precip Events Conditions
12:15 AM 14.0 °F - 10.4 °F 86% 30.40 in 10.0 mi Calm Calm - N/A   Clear
12:35 AM 14.0 °F - 10.4 °F 86% 30.40 in 10.0 mi Calm Calm - N/A   Clear
12:55 AM 14.0 °F - 10.4 °F 86% 30.41 in 10.0 mi Calm Calm - N/A   Clear
1:15 AM 14.0 °F - 10.4 °F 86% 30.41 in 10.0 mi Calm Calm - N/A   Clear
1:35 AM 14.0 °F - 10.4 °F 86% 30.43 in 10.0 mi Calm Calm - N/A   Clear
1:55 AM 14.0 °F - 10.4 °F 86% 30.44 in 10.0 mi Calm Calm - N/A   Clear
2:15 AM 14.0 °F - 10.4 °F 86% 30.44 in 10.0 mi Calm Calm - N/A   Clear
2:35 AM 14.0 °F - 10.4 °F 86% 30.44 in 10.0 mi Calm Calm - N/A   Clear
2:55 AM 14.0 °F - 10.4 °F 86% 30.44 in 10.0 mi Calm Calm - N/A   Clear
3:15 AM 12.2 °F - 10.4 °F 92% 30.44 in 10.0 mi Calm Calm - N/A   Clear
3:35 AM 12.2 °F - 10.4 °F 92% 30.45 in 10.0 mi Calm Calm - N/A   Clear
3:55 AM 12.2 °F - 10.4 °F 92% 30.45 in 10.0 mi Calm Calm - N/A   Clear
4:15 AM 14.0 °F - 10.4 °F 86% 30.45 in 10.0 mi Calm Calm - N/A   Clear
4:35 AM 14.0 °F - 10.4 °F 86% 30.45 in 10.0 mi Calm Calm - N/A   Clear
4:55 AM 12.2 °F - 10.4 °F 92% 30.46 in 10.0 mi Calm Calm - N/A   Clear
5:15 AM 12.2 °F - 10.4 °F 92% 30.46 in 10.0 mi Calm Calm - N/A   Clear
5:35 AM 10.4 °F - 8.6 °F 92% 30.47 in 10.0 mi Calm Calm - N/A   Clear
5:55 AM 10.4 °F - 8.6 °F 92% 30.47 in 10.0 mi Calm Calm - N/A   Clear
6:15 AM 12.2 °F - 8.6 °F 85% 30.47 in 10.0 mi Calm Calm - N/A   Clear
6:35 AM 12.2 °F 6.1 °F 10.4 °F 92% 30.47 in 10.0 mi WNW 3.5 mph - N/A   Clear
6:55 AM 15.8 °F 8.6 °F 12.2 °F 86% 30.47 in 10.0 mi West 4.6 mph - N/A   Clear
7:15 AM 15.8 °F - 10.4 °F 79% 30.49 in 10.0 mi Calm Calm - N/A   Clear
7:35 AM 17.6 °F 12.3 °F 12.2 °F 79% 30.49 in 10.0 mi WNW 3.5 mph - N/A   Clear
7:55 AM 21.2 °F 16.4 °F 14.0 °F 74% 30.51 in 10.0 mi WNW 3.5 mph - N/A   Clear
8:15 AM 21.2 °F 13.6 °F 14.0 °F 74% 30.52 in 10.0 mi WNW 5.8 mph - N/A   Clear
8:35 AM 23.0 °F 18.4 °F 14.0 °F 68% 30.52 in 10.0 mi WNW 3.5 mph - N/A   Clear
8:55 AM 24.8 °F 19.1 °F 15.8 °F 69% 30.52 in 10.0 mi WNW 4.6 mph - N/A   Clear
9:15 AM 26.6 °F 19.1 °F 15.8 °F 64% 30.53 in 10.0 mi NW 6.9 mph - N/A   Clear
9:35 AM 28.4 °F 20.4 °F 15.8 °F 59% 30.54 in 10.0 mi WNW 8.1 mph - N/A   Clear
9:55 AM 28.4 °F 19.7 °F 15.8 °F 59% 30.55 in 10.0 mi WNW 9.2 mph - N/A   Clear
10:15 AM 28.4 °F 23.3 °F 17.6 °F 64% 30.55 in 10.0 mi NW 4.6 mph - N/A   Clear
10:35 AM 30.2 °F 24.3 °F 15.8 °F 55% 30.56 in 10.0 mi NNW 5.8 mph 16.1 mph N/A   Clear
10:55 AM 30.2 °F 24.3 °F 15.8 °F 55% 30.55 in 10.0 mi NW 5.8 mph - N/A   Clear
11:15 AM 32.0 °F 26.4 °F 17.6 °F 55% 30.54 in 10.0 mi WNW 5.8 mph - N/A   Clear
11:35 AM 32.0 °F 24.2 °F 17.6 °F 55% 30.54 in 10.0 mi NW 9.2 mph - N/A   Clear
11:55 AM 32.0 °F 26.4 °F 17.6 °F 55% 30.52 in 10.0 mi NW 5.8 mph - N/A   Clear
12:15 PM 32.0 °F 27.5 °F 17.6 °F 55% 30.52 in 10.0 mi WNW 4.6 mph - N/A   Clear
12:35 PM 32.0 °F 26.4 °F 17.6 °F 55% 30.51 in 10.0 mi WNW 5.8 mph - N/A   Clear
1:15 PM 32.0 °F 25.6 °F 17.6 °F 55% 30.49 in 10.0 mi NW 6.9 mph - N/A   Clear
1:35 PM 33.8 °F 28.6 °F 17.6 °F 52% 30.49 in 10.0 mi NW 5.8 mph - N/A   Clear
1:55 PM 33.8 °F 28.6 °F 17.6 °F 52% 30.48 in 10.0 mi West 5.8 mph - N/A   Clear
2:15 PM 33.8 °F 27.7 °F 17.6 °F 52% 30.48 in 10.0 mi WNW 6.9 mph - N/A   Clear
2:35 PM 33.8 °F 29.6 °F 15.8 °F 48% 30.47 in 10.0 mi WNW 4.6 mph - N/A   Clear
2:55 PM 33.8 °F 27.7 °F 15.8 °F 48% 30.47 in 10.0 mi NW 6.9 mph - N/A   Clear
3:15 PM 33.8 °F 27.7 °F 17.6 °F 52% 30.48 in 10.0 mi West 6.9 mph - N/A   Clear
3:35 PM 33.8 °F 28.6 °F 17.6 °F 52% 30.48 in 10.0 mi West 5.8 mph - N/A   Clear
3:55 PM 33.8 °F 29.6 °F 17.6 °F 52% 30.48 in 10.0 mi WSW 4.6 mph - N/A   Clear
4:15 PM 33.8 °F 30.8 °F 17.6 °F 52% 30.47 in 10.0 mi West 3.5 mph - N/A   Clear
4:35 PM 33.8 °F 29.6 °F 17.6 °F 52% 30.48 in 10.0 mi WNW 4.6 mph - N/A   Clear
4:55 PM 32.0 °F 28.7 °F 15.8 °F 51% 30.48 in 10.0 mi WNW 3.5 mph - N/A   Clear
5:15 PM 32.0 °F - 17.6 °F 55% 30.49 in 10.0 mi Calm Calm - N/A   Clear
5:35 PM 32.0 °F - 17.6 °F 55% 30.50 in 10.0 mi Calm Calm - N/A   Clear
5:55 PM 30.2 °F - 19.4 °F 64% 30.50 in 10.0 mi Calm Calm - N/A   Clear
6:15 PM 28.4 °F - 19.4 °F 69% 30.51 in 10.0 mi Calm Calm - N/A   Clear
6:35 PM 28.4 °F - 19.4 °F 69% 30.51 in 10.0 mi Calm Calm - N/A   Clear
6:55 PM 28.4 °F - 19.4 °F 69% 30.51 in 10.0 mi Calm Calm - N/A   Clear
7:15 PM 26.6 °F - 19.4 °F 74% 30.50 in 10.0 mi Calm Calm - N/A   Clear
7:35 PM 26.6 °F - 21.2 °F 80% 30.50 in 10.0 mi Calm Calm - N/A   Clear
7:55 PM 26.6 °F - 19.4 °F 74% 30.50 in 10.0 mi Calm Calm - N/A   Clear
8:15 PM 28.4 °F - 17.6 °F 64% 30.49 in 10.0 mi Calm Calm - N/A   Clear
8:35 PM 26.6 °F - 19.4 °F 74% 30.49 in 10.0 mi Calm Calm - N/A   Clear
8:55 PM 26.6 °F - 19.4 °F 74% 30.50 in 10.0 mi Calm Calm - N/A   Clear
9:15 PM 26.6 °F - 19.4 °F 74% 30.50 in 10.0 mi Calm Calm - N/A   Clear
9:35 PM 24.8 °F - 19.4 °F 80% 30.49 in 10.0 mi Calm Calm - N/A   Clear
9:55 PM 24.8 °F - 19.4 °F 80% 30.49 in 10.0 mi Calm Calm - N/A   Clear
10:15 PM 23.0 °F - 19.4 °F 86% 30.48 in 10.0 mi Calm Calm - N/A   Clear
10:35 PM 23.0 °F - 19.4 °F 86% 30.48 in 10.0 mi Calm Calm - N/A   Clear
10:55 PM 23.0 °F - 19.4 °F 86% 30.48 in 10.0 mi Calm Calm - N/A   Clear
11:15 PM 23.0 °F - 19.4 °F 86% 30.49 in 10.0 mi Calm Calm - N/A   Clear
11:35 PM 23.0 °F - 19.4 °F 86% 30.49 in 10.0 mi Calm Calm - N/A   Clear
11:55 PM 23.0 °F - 19.4 °F 86% 30.49 in 10.0 mi Calm Calm - N/A   Clear